,,Stat6,,Stat2,,Stat8,,Stat9,,Stat10,,Wind1,,Wind1,
time,status,PA1M_AVG,status,PR1M_SUM,status,RH1M_AVG,status,SR1M_AVG,status,TA1M_AVG,status,W1dAve1m,status,W1sAve1m,
2004-07-26, 00:00:01,VALID,917.509,VALID,0,VALID,99.1483,VALID,-0.0849042,VALID,18.1134,VALID,57,VALID,0.0301847,
2004-07-26, 00:01:00,VALID,917.511,VALID,0,VALID,99.3327,VALID,-0.0849042,VALID,18.1429,VALID,57,VALID,0,
2004-07-26, 00:02:00,VALID,917.509,VALID,0,VALID,99.4713,VALID,-0.101885,VALID,18.1682,VALID,56,VALID,0,
2004-07-26, 00:03:00,VALID,917.479,VALID,0,VALID,99.7663,VALID,-0.101885,VALID,18.2529,VALID,57,VALID,0,
2004-07-26, 00:04:00,VALID,917.455,VALID,0,VALID,99.6366,VALID,-0.0509425,VALID,18.2591,VALID,56,VALID,0.0294471,
2004-07-26, 00:05:00,VALID,917.453,VALID,0,VALID,99.4585,VALID,-0.101885,VALID,18.233,VALID,56,VALID,0.253049,
2004-07-26, 00:06:00,VALID,917.429,VALID,0,VALID,99.311,VALID,-0.0849042,VALID,18.2134,VALID,17,VALID,0.299538,
2004-07-26, 00:07:00,VALID,917.435,VALID,0,VALID,98.6714,VALID,-0.0509425,VALID,18.091,VALID,355,VALID,0.000545058,
2004-07-26, 00:08:01,VALID,917.446,VALID,0,VALID,98.8609,VALID,0.0169808,VALID,18.0673,VALID,355,VALID,0.1163,
2004-07-26, 00:09:00,VALID,917.45,VALID,0,VALID,99.1076,VALID,0,VALID,18.0832,VALID,355,VALID,0,
2004-07-26, 00:10:00,VALID,917.463,VALID,0,VALID,99.1203,VALID,0,VALID,18.0836,VALID,355,VALID,0,
2004-07-26, 00:11:00,VALID,917.459,VALID,0,VALID,99.2793,VALID,0.0339617,VALID,18.0767,VALID,355,VALID,0.111471,
2004-07-26, 00:12:00,VALID,917.466,VALID,0,VALID,99.1445,VALID,0,VALID,18.0799,VALID,6,VALID,0.458097,
2004-07-26, 00:13:00,VALID,917.464,VALID,0,VALID,98.7592,VALID,0,VALID,18.0158,VALID,45,VALID,0.7629,
2004-07-26, 00:14:00,VALID,917.458,VALID,0,VALID,98.9906,VALID,0.0339617,VALID,18.0152,VALID,44,VALID,0.502907,
2004-07-26, 00:15:00,VALID,917.44,VALID,0,VALID,98.7744,VALID,0,VALID,17.9995,VALID,41,VALID,0.433966,
2004-07-26, 00:16:00,VALID,917.421,VALID,0,VALID,98.6435,VALID,0.0169808,VALID,17.9285,VALID,41,VALID,0.454649,
2004-07-26, 00:17:00,VALID,917.406,VALID,0,VALID,99.0542,VALID,0,VALID,17.9515,VALID,36,VALID,0.428622,
2004-07-26, 00:18:01,VALID,917.4,VALID,0,VALID,99.3492,VALID,0.0339617,VALID,17.9541,VALID,22,VALID,0.406605,
2004-07-26, 00:19:01,VALID,917.416,VALID,0,VALID,99.4903,VALID,0.0169808,VALID,17.9739,VALID,22,VALID,0.275174,
2004-07-26, 00:20:00,VALID,917.411,VALID,0,VALID,99.4878,VALID,0.0339617,VALID,17.9483,VALID,22,VALID,0.43125,
2004-07-26, 00:21:00,VALID,917.41,VALID,0,VALID,99.4891,VALID,0.0169808,VALID,17.9319,VALID,29,VALID,0.56032,
2004-07-26, 00:22:00,VALID,917.407,VALID,0,VALID,99.8006,VALID,0.0339617,VALID,17.9607,VALID,37,VALID,0.5625,
2004-07-26, 00:23:00,VALID,917.407,VALID,0,VALID,99.7803,VALID,0.0339617,VALID,17.9707,VALID,37,VALID,0.148983,
2004-07-26, 00:24:00,VALID,917.414,VALID,0,VALID,99.9275,VALID,0.0169808,VALID,17.9801,VALID,37,VALID,0.00981105,
2004-07-26, 00:25:00,VALID,917.416,VALID,0,VALID,100,VALID,0.0169808,VALID,18.0218,VALID,37,VALID,0,
2004-07-26, 00:26:01,VALID,917.394,VALID,0,VALID,100,VALID,0.0509425,VALID,18.0281,VALID,37,VALID,0,
2004-07-26, 00:27:00,VALID,917.386,VALID,0,VALID,100,VALID,0.0509425,VALID,18.0544,VALID,37,VALID,0,
2004-07-26, 00:28:00,VALID,917.371,VALID,0,VALID,99.9695,VALID,0,VALID,18.064,VALID,37,VALID,0,
2004-07-26, 00:29:00,VALID,917.355,VALID,0,VALID,99.8566,VALID,0,VALID,18.0705,VALID,37,VALID,0.000571646,
2004-07-26, 00:30:00,VALID,917.328,VALID,0,VALID,99.6468,VALID,0.0679233,VALID,18.041,VALID,51,VALID,0.455487,
2004-07-26, 00:31:01,VALID,917.307,VALID,0,VALID,99.9926,VALID,0.0339617,VALID,18.0866,VALID,63,VALID,0.575076,
2004-07-26, 00:32:00,VALID,917.287,VALID,0,VALID,100,VALID,0.0169808,VALID,18.1542,VALID,72,VALID,0.657465,
2004-07-26, 00:33:00,VALID,917.28,VALID,0,VALID,100,VALID,0.0679233,VALID,18.1994,VALID,72,VALID,0.558503,
2004-07-26, 00:34:00,VALID,917.273,VALID,0,VALID,100,VALID,0.0509425,VALID,18.1706,VALID,72,VALID,0.282522,
2004-07-26, 00:35:00,VALID,917.281,VALID,0,VALID,99.9105,VALID,0.0679233,VALID,18.1281,VALID,72,VALID,0.18407,
2004-07-26, 00:36:00,VALID,917.285,VALID,0,VALID,99.5272,VALID,0.0339617,VALID,18.0348,VALID,72,VALID,0.534961,
2004-07-26, 00:37:00,VALID,917.268,VALID,0,VALID,99.7434,VALID,0.0339617,VALID,18.0477,VALID,72,VALID,0.0992543,
2004-07-26, 00:38:00,VALID,917.269,VALID,0,VALID,99.9565,VALID,0.0169808,VALID,18.106,VALID,72,VALID,0.0123547,
2004-07-26, 00:39:00,VALID,917.251,VALID,0,VALID,100,VALID,0.0339617,VALID,18.1606,VALID,72,VALID,0,
2004-07-26, 00:40:00,VALID,917.242,VALID,0,VALID,99.9964,VALID,0.0339617,VALID,18.177,VALID,72,VALID,0,
2004-07-26, 00:41:01,VALID,917.228,VALID,0,VALID,99.8909,VALID,0,VALID,18.1636,VALID,72,VALID,0.0637718,
2004-07-26, 00:42:01,VALID,917.224,VALID,0,VALID,99.6417,VALID,0,VALID,18.1321,VALID,72,VALID,0.0443314,
2004-07-26, 00:43:00,VALID,917.219,VALID,0,VALID,99.5679,VALID,0,VALID,18.106,VALID,72,VALID,0.00669643,
2004-07-26, 00:44:01,VALID,917.216,VALID,0,VALID,99.913,VALID,0.0509425,VALID,18.1929,VALID,72,VALID,0.378162,
2004-07-26, 00:45:01,VALID,917.2,VALID,0,VALID,100,VALID,0.0339617,VALID,18.2803,VALID,72,VALID,0.0359375,
2004-07-26, 00:46:00,VALID,917.196,VALID,0,VALID,100,VALID,0.0339617,VALID,18.3126,VALID,72,VALID,0.0699405,
2004-07-26, 00:47:00,VALID,917.198,VALID,0,VALID,100,VALID,0.0169808,VALID,18.3223,VALID,72,VALID,0.00457317,
2004-07-26, 00:48:01,VALID,917.179,VALID,0,VALID,100,VALID,0.0679233,VALID,18.3481,VALID,72,VALID,0,
2004-07-26, 00:49:00,VALID,917.179,VALID,0,VALID,100,VALID,0,VALID,18.3449,VALID,72,VALID,0,
2004-07-26, 00:50:01,VALID,917.156,VALID,0,VALID,99.999,VALID,0.0169808,VALID,18.2997,VALID,72,VALID,0,
2004-07-26, 00:51:00,VALID,917.152,VALID,0,VALID,99.6811,VALID,0.0169808,VALID,18.2128,VALID,72,VALID,0,
2004-07-26, 00:52:00,VALID,917.161,VALID,0,VALID,99.147,VALID,0.0169808,VALID,18.0899,VALID,72,VALID,0,
2004-07-26, 00:53:01,VALID,917.171,VALID,0,VALID,99.1839,VALID,0,VALID,18.0516,VALID,72,VALID,0,
2004-07-26, 00:54:00,VALID,917.17,VALID,0,VALID,99.4484,VALID,-0.0169808,VALID,18.0548,VALID,72,VALID,0,
2004-07-26, 00:55:00,VALID,917.166,VALID,0,VALID,99.6468,VALID,-0.0169808,VALID,18.0772,VALID,72,VALID,0,
2004-07-26, 00:56:01,VALID,917.155,VALID,0,VALID,99.7332,VALID,0,VALID,18.0836,VALID,72,VALID,0.193496,
2004-07-26, 00:57:01,VALID,917.14,VALID,0,VALID,99.6824,VALID,0,VALID,18.0643,VALID,73,VALID,0.523438,
2004-07-26, 00:58:00,VALID,917.139,VALID,0,VALID,99.8945,VALID,0,VALID,18.0677,VALID,86,VALID,0.671113,
2004-07-26, 00:59:00,VALID,917.124,VALID,0,VALID,100,VALID,-0.0169808,VALID,18.1067,VALID,88,VALID,0.625558,
2004-07-26, 01:00:00,VALID,917.115,VALID,0,VALID,100,VALID,-0.0169808,VALID,18.1288,VALID,88,VALID,0.171875,
2004-07-26, 01:01:01,VALID,917.109,VALID,0,VALID,100,VALID,0,VALID,18.1417,VALID,100,VALID,0.550876,
2004-07-26, 01:02:00,VALID,917.081,VALID,0,VALID,100,VALID,-0.0169808,VALID,18.1325,VALID,116,VALID,0.567383,
2004-07-26, 01:03:00,VALID,917.072,VALID,0,VALID,99.985,VALID,-0.0169808,VALID,18.1263,VALID,116,VALID,0.575347,
2004-07-26, 01:04:00,VALID,917.053,VALID,0,VALID,99.929,VALID,0.0169808,VALID,18.1032,VALID,116,VALID,0.485677,
2004-07-26, 01:05:00,VALID,917.037,VALID,0,VALID,99.9545,VALID,-0.0169808,VALID,18.1067,VALID,116,VALID,0.235119,
2004-07-26, 01:06:00,VALID,917.027,VALID,0,VALID,99.9685,VALID,-0.0169808,VALID,18.1131,VALID,116,VALID,0.220846,
2004-07-26, 01:07:00,VALID,916.999,VALID,0,VALID,99.9952,VALID,0,VALID,18.1263,VALID,116,VALID,0.290968,
2004-07-26, 01:08:01,VALID,916.974,VALID,0,VALID,100,VALID,-0.0339617,VALID,18.1353,VALID,116,VALID,0.0817454,
2004-07-26, 01:09:00,VALID,916.957,VALID,0,VALID,99.8599,VALID,0,VALID,18.1424,VALID,116,VALID,0.116806,
2004-07-26, 01:10:00,VALID,916.937,VALID,0,VALID,99.5679,VALID,0,VALID,18.0905,VALID,116,VALID,0,
2004-07-26, 01:11:01,VALID,916.915,VALID,0,VALID,99.6556,VALID,0,VALID,18.0673,VALID,116,VALID,0,
2004-07-26, 01:12:00,VALID,916.896,VALID,0,VALID,99.6506,VALID,0.0169808,VALID,18.0769,VALID,116,VALID,0,
2004-07-26, 01:13:01,VALID,916.884,VALID,0,VALID,99.6747,VALID,-0.0169808,VALID,18.1067,VALID,116,VALID,0,
2004-07-26, 01:14:00,VALID,916.865,VALID,0,VALID,99.4675,VALID,-0.0169808,VALID,18.0905,VALID,116,VALID,0.0862926,
2004-07-26, 01:15:00,VALID,916.837,VALID,0,VALID,99.4725,VALID,0,VALID,18.0673,VALID,116,VALID,0.0748264,
2004-07-26, 01:16:00,VALID,916.82,VALID,0,VALID,99.6925,VALID,0,VALID,18.0896,VALID,116,VALID,0.0876524,
2004-07-26, 01:17:00,VALID,916.8,VALID,0,VALID,99.7269,VALID,0,VALID,18.1256,VALID,116,VALID,0.295117,
2004-07-26, 01:18:01,VALID,916.779,VALID,0,VALID,99.6264,VALID,0,VALID,18.1226,VALID,116,VALID,0.670058,
2004-07-26, 01:19:01,VALID,916.77,VALID,0,VALID,99.7243,VALID,0,VALID,18.1224,VALID,118,VALID,0.962028,
2004-07-26, 01:20:00,VALID,916.76,VALID,0,VALID,99.924,VALID,0,VALID,18.1516,VALID,118,VALID,1.00019,
2004-07-26, 01:21:00,VALID,916.749,VALID,0,VALID,99.9644,VALID,0,VALID,18.1908,VALID,118,VALID,0.785689,
2004-07-26, 01:22:00,VALID,916.731,VALID,0,VALID,99.7574,VALID,0,VALID,18.1906,VALID,117,VALID,0.392933,
2004-07-26, 01:23:01,VALID,916.721,VALID,0,VALID,99.7243,VALID,0,VALID,18.1646,VALID,117,VALID,0.557617,
2004-07-26, 01:24:00,VALID,916.712,VALID,0,VALID,99.8108,VALID,0,VALID,18.1678,VALID,118,VALID,0.544829,
2004-07-26, 01:25:00,VALID,916.702,VALID,0,VALID,99.9512,VALID,0,VALID,18.1839,VALID,121,VALID,0.711338,
2004-07-26, 01:26:00,VALID,916.693,VALID,0,VALID,99.984,VALID,0,VALID,18.2134,VALID,120,VALID,0.547763,
2004-07-26, 01:27:00,VALID,916.684,VALID,0,VALID,100,VALID,0.0169808,VALID,18.2291,VALID,120,VALID,0.49375,
2004-07-26, 01:28:01,VALID,916.681,VALID,0,VALID,100,VALID,0,VALID,18.248,VALID,120,VALID,0.151456,
2004-07-26, 01:29:01,VALID,916.675,VALID,0,VALID,99.9769,VALID,-0.0169808,VALID,18.245,VALID,120,VALID,0.0787109,
2004-07-26, 01:30:01,VALID,916.669,VALID,0,VALID,99.7663,VALID,0,VALID,18.2125,VALID,120,VALID,0.116629,
2004-07-26, 01:31:00,VALID,916.665,VALID,0,VALID,99.3479,VALID,-0.0169808,VALID,18.1387,VALID,120,VALID,0.377046,
2004-07-26, 01:32:01,VALID,916.66,VALID,0,VALID,99.2017,VALID,0,VALID,18.0875,VALID,82,VALID,0.65676,
2004-07-26, 01:33:01,VALID,916.643,VALID,0,VALID,99.1915,VALID,0,VALID,18.0746,VALID,61,VALID,0.647507,
2004-07-26, 01:34:00,VALID,916.628,VALID,0,VALID,99.1953,VALID,-0.0169808,VALID,18.0447,VALID,61,VALID,0.391387,
2004-07-26, 01:35:01,VALID,916.615,VALID,0,VALID,99.2131,VALID,-0.0169808,VALID,18.0419,VALID,61,VALID,0.34718,
2004-07-26, 01:36:00,VALID,916.595,VALID,0,VALID,99.2475,VALID,0,VALID,18.0421,VALID,61,VALID,0.00944767,
2004-07-26, 01:37:01,VALID,916.577,VALID,0,VALID,99.2347,VALID,-0.0169808,VALID,18.0419,VALID,61,VALID,0,
2004-07-26, 01:38:01,VALID,916.556,VALID,0,VALID,99.2233,VALID,0,VALID,18.0389,VALID,61,VALID,0,
2004-07-26, 01:39:00,VALID,916.537,VALID,0,VALID,99.4357,VALID,0,VALID,18.0454,VALID,61,VALID,0.024966,
2004-07-26, 01:40:01,VALID,916.517,VALID,0,VALID,99.6061,VALID,-0.0169808,VALID,18.0744,VALID,61,VALID,0.00479403,
2004-07-26, 01:41:01,VALID,916.494,VALID,0,VALID,99.5094,VALID,-0.0339617,VALID,18.0608,VALID,61,VALID,0,
2004-07-26, 01:42:01,VALID,916.501,VALID,0,VALID,99.3492,VALID,0.0169808,VALID,18.0514,VALID,61,VALID,3.90962,
2004-07-26, 01:43:01,VALID,916.493,VALID,0,VALID,99.3899,VALID,-0.0169808,VALID,18.0484,VALID,61,VALID,0.137891,
2004-07-26, 01:44:00,VALID,916.496,VALID,0,VALID,99.3886,VALID,-0.0169808,VALID,18.0481,VALID,61,VALID,0.0401786,
2004-07-26, 01:45:01,VALID,916.506,VALID,0,VALID,99.3149,VALID,0,VALID,18.0477,VALID,61,VALID,0.000372024,
2004-07-26, 01:46:01,VALID,916.502,VALID,0,VALID,99.1585,VALID,0,VALID,18.032,VALID,61,VALID,0.265447,
2004-07-26, 01:47:01,VALID,916.509,VALID,0,VALID,98.9817,VALID,0,VALID,17.9967,VALID,61,VALID,0.432776,
2004-07-26, 01:48:00,VALID,916.524,VALID,0,VALID,98.8494,VALID,-0.0169808,VALID,17.9743,VALID,61,VALID,0.229539,
2004-07-26, 01:49:01,VALID,916.527,VALID,0,VALID,98.9245,VALID,0,VALID,17.9451,VALID,61,VALID,0.152616,
2004-07-26, 01:50:01,VALID,916.52,VALID,0,VALID,99.189,VALID,-0.0339617,VALID,17.9647,VALID,61,VALID,0.065952,
2004-07-26, 01:51:01,VALID,916.502,VALID,0,VALID,99.2729,VALID,-0.0169808,VALID,17.9743,VALID,61,VALID,0.223837,
2004-07-26, 01:52:00,VALID,916.489,VALID,0,VALID,99.2525,VALID,-0.0509425,VALID,17.9737,VALID,61,VALID,0.237571,
2004-07-26, 01:53:01,VALID,916.467,VALID,0,VALID,99.2513,VALID,0,VALID,17.9741,VALID,67,VALID,0.479725,
2004-07-26, 01:54:01,VALID,916.451,VALID,0,VALID,99.3759,VALID,0,VALID,17.981,VALID,79,VALID,0.496189,
2004-07-26, 01:55:01,VALID,916.426,VALID,0,VALID,99.5069,VALID,0,VALID,18.0103,VALID,90,VALID,0.594658,
2004-07-26, 01:56:01,VALID,916.381,VALID,0,VALID,99.4827,VALID,0,VALID,18.0232,VALID,107,VALID,0.675876,
2004-07-26, 01:57:01,VALID,916.38,VALID,0,VALID,99.4268,VALID,-0.0169808,VALID,18.0324,VALID,112,VALID,0.631445,
2004-07-26, 01:58:01,VALID,916.355,VALID,0,VALID,99.3085,VALID,-0.0169808,VALID,18.0324,VALID,111,VALID,0.327592,
2004-07-26, 01:59:00,VALID,916.349,VALID,0,VALID,99.2589,VALID,0,VALID,18.0363,VALID,111,VALID,0.355378,
2004-07-26, 02:00:01,VALID,916.338,VALID,0,VALID,99.1572,VALID,-0.0169808,VALID,18.023,VALID,111,VALID,0.0268895,
2004-07-26, 02:01:01,VALID,916.336,VALID,0,VALID,99.0377,VALID,0,VALID,18.0195,VALID,111,VALID,0,
2004-07-26, 02:02:01,VALID,916.337,VALID,0,VALID,98.9817,VALID,-0.0169808,VALID,17.9937,VALID,111,VALID,0,
2004-07-26, 02:03:01,VALID,916.36,VALID,0,VALID,98.9219,VALID,0,VALID,17.9743,VALID,111,VALID,0,
2004-07-26, 02:04:01,VALID,916.37,VALID,0,VALID,98.9245,VALID,0,VALID,17.9612,VALID,111,VALID,0,
2004-07-26, 02:05:01,VALID,916.372,VALID,0,VALID,98.9664,VALID,0,VALID,17.9681,VALID,111,VALID,0,
2004-07-26, 02:06:01,VALID,916.358,VALID,0,VALID,99.0008,VALID,-0.0169808,VALID,17.9584,VALID,112,VALID,0,
2004-07-26, 02:07:01,VALID,916.347,VALID,0,VALID,99.0389,VALID,-0.0339617,VALID,17.9517,VALID,111,VALID,0,
2004-07-26, 02:08:01,VALID,916.336,VALID,0,VALID,98.9944,VALID,-0.0169808,VALID,17.9586,VALID,111,VALID,0,
2004-07-26, 02:09:01,VALID,916.314,VALID,0,VALID,99.1432,VALID,0,VALID,17.955,VALID,111,VALID,0.189538,
2004-07-26, 02:10:01,VALID,916.298,VALID,0,VALID,99.2615,VALID,0,VALID,17.981,VALID,111,VALID,0.611192,
2004-07-26, 02:11:01,VALID,916.296,VALID,0,VALID,99.2131,VALID,0,VALID,18.0036,VALID,111,VALID,0.646662,
2004-07-26, 02:12:01,VALID,916.303,VALID,0,VALID,98.969,VALID,0,VALID,18.0228,VALID,110,VALID,0.654688,
2004-07-26, 02:13:01,VALID,916.316,VALID,0,VALID,98.7414,VALID,0,VALID,18.058,VALID,110,VALID,0.797053,
2004-07-26, 02:14:01,VALID,916.315,VALID,0,VALID,98.5786,VALID,-0.0169808,VALID,18.0841,VALID,116,VALID,0.923874,
2004-07-26, 02:15:01,VALID,916.322,VALID,0,VALID,98.543,VALID,0,VALID,18.1134,VALID,123,VALID,0.983774,
2004-07-26, 02:16:01,VALID,916.326,VALID,0,VALID,98.5837,VALID,0,VALID,18.1516,VALID,118,VALID,1.03258,
2004-07-26, 02:17:01,VALID,916.308,VALID,0,VALID,98.5544,VALID,0,VALID,18.1772,VALID,123,VALID,1.08067,
2004-07-26, 02:18:01,VALID,916.296,VALID,0,VALID,98.6638,VALID,0.0169808,VALID,18.2033,VALID,133,VALID,1.32889,
2004-07-26, 02:19:01,VALID,916.293,VALID,0,VALID,98.9181,VALID,0,VALID,18.2323,VALID,127,VALID,1.15662,
2004-07-26, 02:20:01,VALID,916.287,VALID,0,VALID,99.2691,VALID,0.0169808,VALID,18.2877,VALID,130,VALID,1.16592,
2004-07-26, 02:21:01,VALID,916.268,VALID,0,VALID,99.3492,VALID,0,VALID,18.2902,VALID,128,VALID,0.730208,
2004-07-26, 02:22:01,VALID,916.26,VALID,0,VALID,99.3886,VALID,0,VALID,18.2974,VALID,118,VALID,0.731468,
2004-07-26, 02:23:00,VALID,916.231,VALID,0,VALID,99.2996,VALID,-0.135847,VALID,18.2893,VALID,99,VALID,0.455273,
2004-07-26, 02:24:00,VALID,916.232,VALID,0,VALID,99.2093,VALID,-0.101885,VALID,18.2307,VALID,101,VALID,0.411222,
2004-07-26, 02:25:00,VALID,916.211,VALID,0,VALID,99.5081,VALID,-0.101885,VALID,18.2342,VALID,125,VALID,0.895167,
2004-07-26, 02:26:00,VALID,916.19,VALID,0,VALID,99.6849,VALID,-0.101885,VALID,18.2563,VALID,113,VALID,0.668713,
2004-07-26, 02:27:00,VALID,916.183,VALID,0,VALID,99.7523,VALID,-0.101885,VALID,18.263,VALID,100,VALID,0.59282,
2004-07-26, 02:28:00,VALID,916.173,VALID,0,VALID,99.6773,VALID,-0.118866,VALID,18.2337,VALID,100,VALID,0.319444,
2004-07-26, 02:29:00,VALID,916.172,VALID,0,VALID,99.7154,VALID,-0.101885,VALID,18.231,VALID,105,VALID,0.565739,
2004-07-26, 02:30:00,VALID,916.173,VALID,0,VALID,99.7968,VALID,-0.101885,VALID,18.2141,VALID,125,VALID,0.731445,
2004-07-26, 02:31:00,VALID,916.161,VALID,0,VALID,99.9278,VALID,-0.101885,VALID,18.2273,VALID,122,VALID,0.888081,
2004-07-26, 02:32:00,VALID,916.158,VALID,0,VALID,99.9921,VALID,-0.101885,VALID,18.2471,VALID,117,VALID,1.00945,
2004-07-26, 02:33:00,VALID,916.166,VALID,0,VALID,99.972,VALID,-0.152827,VALID,18.2501,VALID,118,VALID,0.478338,
2004-07-26, 02:34:00,VALID,916.15,VALID,0,VALID,99.8896,VALID,-0.101885,VALID,18.2469,VALID,130,VALID,0.784766,
2004-07-26, 02:35:00,VALID,916.155,VALID,0,VALID,99.9074,VALID,-0.101885,VALID,18.2469,VALID,129,VALID,0.916481,
2004-07-26, 02:36:00,VALID,916.154,VALID,0,VALID,99.8985,VALID,-0.118866,VALID,18.2533,VALID,128,VALID,1.14531,
2004-07-26, 02:37:00,VALID,916.17,VALID,0,VALID,99.8413,VALID,-0.135847,VALID,18.2669,VALID,124,VALID,1.05687,
2004-07-26, 02:38:00,VALID,916.169,VALID,0,VALID,99.7943,VALID,-0.0169808,VALID,18.2748,VALID,124,VALID,0.957508,
2004-07-26, 02:39:00,VALID,916.159,VALID,0,VALID,99.7726,VALID,0,VALID,18.2879,VALID,123,VALID,1.13728,
2004-07-26, 02:40:00,VALID,916.171,VALID,0,VALID,99.7701,VALID,0,VALID,18.2974,VALID,126,VALID,0.956936,
2004-07-26, 02:41:00,VALID,916.162,VALID,0,VALID,99.676,VALID,0,VALID,18.3133,VALID,125,VALID,0.991997,
2004-07-26, 02:42:00,VALID,916.161,VALID,0,VALID,99.5616,VALID,0,VALID,18.3297,VALID,128,VALID,0.946646,
2004-07-26, 02:43:00,VALID,916.151,VALID,0,VALID,99.5196,VALID,0,VALID,18.3359,VALID,133,VALID,0.917969,
2004-07-26, 02:44:00,VALID,916.133,VALID,0,VALID,99.4687,VALID,0,VALID,18.3493,VALID,132,VALID,0.972834,
2004-07-26, 02:45:00,VALID,916.123,VALID,0,VALID,99.3886,VALID,-0.0339617,VALID,18.346,VALID,107,VALID,0.851944,
2004-07-26, 02:46:00,VALID,916.109,VALID,0,VALID,99.292,VALID,-0.0169808,VALID,18.3262,VALID,79,VALID,0.803571,
2004-07-26, 02:47:00,VALID,916.111,VALID,0,VALID,99.1597,VALID,0,VALID,18.3393,VALID,78,VALID,0.64008,
2004-07-26, 02:48:00,VALID,916.124,VALID,0,VALID,99.0364,VALID,0,VALID,18.3396,VALID,78,VALID,0.358631,
2004-07-26, 02:49:00,VALID,916.131,VALID,0,VALID,98.8723,VALID,-0.0169808,VALID,18.3426,VALID,78,VALID,0.114644,
2004-07-26, 02:50:00,VALID,916.138,VALID,0,VALID,98.8494,VALID,0,VALID,18.3423,VALID,78,VALID,0.308949,
2004-07-26, 02:51:00,VALID,916.137,VALID,0,VALID,98.8825,VALID,0,VALID,18.3389,VALID,101,VALID,0.656076,
2004-07-26, 02:52:00,VALID,916.135,VALID,0,VALID,98.7859,VALID,0,VALID,18.3389,VALID,105,VALID,0.768714,
2004-07-26, 02:53:00,VALID,916.133,VALID,0,VALID,98.6638,VALID,0,VALID,18.3124,VALID,105,VALID,0.52468,
2004-07-26, 02:54:00,VALID,916.122,VALID,0,VALID,98.6485,VALID,0,VALID,18.3101,VALID,105,VALID,0.340661,
2004-07-26, 02:55:00,VALID,916.126,VALID,0,VALID,98.6981,VALID,0,VALID,18.3064,VALID,105,VALID,0.410156,
2004-07-26, 02:56:00,VALID,916.119,VALID,0,VALID,98.6091,VALID,0,VALID,18.2932,VALID,101,VALID,0.74256,
2004-07-26, 02:57:00,VALID,916.102,VALID,0,VALID,97.7215,VALID,-0.0169808,VALID,18.2644,VALID,105,VALID,0.970353,
2004-07-26, 02:58:00,VALID,916.099,VALID,0,VALID,96.6076,VALID,-0.0169808,VALID,18.3096,VALID,81,VALID,1.21484,
2004-07-26, 02:59:00,VALID,916.08,VALID,0,VALID,95.9108,VALID,0,VALID,18.4226,VALID,72,VALID,0.952344,
2004-07-26, 03:00:00,VALID,916.089,VALID,0,VALID,95.2661,VALID,0,VALID,18.5164,VALID,84,VALID,1.02102,
2004-07-26, 03:01:00,VALID,916.109,VALID,0,VALID,95.0741,VALID,-0.0169808,VALID,18.5614,VALID,97,VALID,0.826601,
2004-07-26, 03:02:00,VALID,916.105,VALID,0,VALID,95.4899,VALID,-0.0169808,VALID,18.5935,VALID,119,VALID,1.15034,
2004-07-26, 03:03:00,VALID,916.124,VALID,0,VALID,95.8141,VALID,-0.0169808,VALID,18.6001,VALID,111,VALID,0.839453,
2004-07-26, 03:04:00,VALID,916.122,VALID,0,VALID,96.0239,VALID,-0.0169808,VALID,18.6036,VALID,105,VALID,0.336496,
2004-07-26, 03:05:00,VALID,916.134,VALID,0,VALID,96.1982,VALID,0,VALID,18.5738,VALID,105,VALID,0.278711,
2004-07-26, 03:06:00,VALID,916.124,VALID,0,VALID,96.3012,VALID,0,VALID,18.5515,VALID,105,VALID,0.353051,
2004-07-26, 03:07:00,VALID,916.118,VALID,0,VALID,96.4627,VALID,-0.0169808,VALID,18.5192,VALID,105,VALID,0.524306,
2004-07-26, 03:08:00,VALID,916.128,VALID,0,VALID,96.6013,VALID,-0.101885,VALID,18.5084,VALID,105,VALID,0.664807,
2004-07-26, 03:09:00,VALID,916.103,VALID,0,VALID,96.6013,VALID,-0.101885,VALID,18.4756,VALID,105,VALID,0.693132,
2004-07-26, 03:10:00,VALID,916.109,VALID,0,VALID,96.6979,VALID,-0.118866,VALID,18.4595,VALID,105,VALID,0.808408,
2004-07-26, 03:11:00,VALID,916.113,VALID,0,VALID,96.6102,VALID,-0.152827,VALID,18.4855,VALID,112,VALID,0.933681,
2004-07-26, 03:12:00,VALID,916.109,VALID,0,VALID,96.6216,VALID,-0.0849042,VALID,18.5079,VALID,119,VALID,0.87779,
2004-07-26, 03:13:00,VALID,916.104,VALID,0,VALID,96.6712,VALID,-0.101885,VALID,18.5462,VALID,106,VALID,0.743862,
2004-07-26, 03:14:00,VALID,916.094,VALID,0,VALID,95.9337,VALID,-0.101885,VALID,18.543,VALID,86,VALID,0.463477,
2004-07-26, 03:15:00,VALID,916.09,VALID,0,VALID,96.2948,VALID,-0.101885,VALID,18.5559,VALID,91,VALID,0.601758,
2004-07-26, 03:16:00,VALID,916.084,VALID,0,VALID,96.3876,VALID,-0.118866,VALID,18.5658,VALID,116,VALID,0.692073,
2004-07-26, 03:17:00,VALID,916.09,VALID,0,VALID,96.2541,VALID,-0.101885,VALID,18.543,VALID,116,VALID,0.705602,
2004-07-26, 03:18:00,VALID,916.088,VALID,0,VALID,96.4868,VALID,-0.101885,VALID,18.5238,VALID,131,VALID,0.786882,
2004-07-26, 03:19:00,VALID,916.094,VALID,0,VALID,96.4436,VALID,-0.118866,VALID,18.5077,VALID,137,VALID,1.15785,
2004-07-26, 03:20:00,VALID,916.092,VALID,0,VALID,96.0341,VALID,-0.118866,VALID,18.4915,VALID,128,VALID,0.809896,
2004-07-26, 03:21:00,VALID,916.076,VALID,0,VALID,96.1269,VALID,-0.101885,VALID,18.5077,VALID,125,VALID,0.107677,
2004-07-26, 03:22:00,VALID,916.077,VALID,0,VALID,96.1333,VALID,-0.101885,VALID,18.5174,VALID,125,VALID,0.0294331,
2004-07-26, 03:23:00,VALID,916.076,VALID,0,VALID,96.2376,VALID,0,VALID,18.5197,VALID,125,VALID,0.116477,
2004-07-26, 03:24:00,VALID,916.071,VALID,0,VALID,96.2973,VALID,0,VALID,18.5224,VALID,125,VALID,0.0123047,
2004-07-26, 03:25:00,VALID,916.067,VALID,0,VALID,96.2134,VALID,0.0169808,VALID,18.4899,VALID,125,VALID,0,
2004-07-26, 03:26:00,VALID,916.047,VALID,0,VALID,96.1994,VALID,0.0169808,VALID,18.4609,VALID,125,VALID,0,
2004-07-26, 03:27:00,VALID,916.035,VALID,0,VALID,96.2668,VALID,0,VALID,18.4479,VALID,125,VALID,0.106712,
2004-07-26, 03:28:00,VALID,916.029,VALID,0,VALID,96.3062,VALID,0,VALID,18.4353,VALID,125,VALID,0.269709,
2004-07-26, 03:29:00,VALID,916.029,VALID,0,VALID,96.3393,VALID,0,VALID,18.4221,VALID,132,VALID,0.476944,
2004-07-26, 03:30:00,VALID,916.01,VALID,0,VALID,96.3317,VALID,0.0169808,VALID,18.3961,VALID,136,VALID,0.202123,
2004-07-26, 03:31:00,VALID,916.009,VALID,0,VALID,95.598,VALID,0,VALID,18.3506,VALID,121,VALID,0.226362,
2004-07-26, 03:32:00,VALID,915.989,VALID,0,VALID,95.1758,VALID,0,VALID,18.3769,VALID,121,VALID,0.0920351,
2004-07-26, 03:33:00,VALID,915.973,VALID,0,VALID,95.027,VALID,-0.0169808,VALID,18.4253,VALID,121,VALID,0,
2004-07-26, 03:34:00,VALID,915.957,VALID,0,VALID,95.1999,VALID,0,VALID,18.4643,VALID,121,VALID,0.288491,
2004-07-26, 03:35:00,VALID,915.955,VALID,0,VALID,95.0486,VALID,0,VALID,18.4283,VALID,121,VALID,0.338542,
2004-07-26, 03:36:00,VALID,915.941,VALID,0,VALID,95.2597,VALID,0.0169808,VALID,18.3868,VALID,121,VALID,0.329688,
2004-07-26, 03:37:00,VALID,915.942,VALID,0,VALID,95.4848,VALID,0,VALID,18.3479,VALID,121,VALID,0.455915,
2004-07-26, 03:38:00,VALID,915.935,VALID,0,VALID,95.7887,VALID,0,VALID,18.3091,VALID,121,VALID,0.211293,